TOURFACTS.DK  
Stats and Facts from Tour de France.

Tour de France 2019 starts in 320 days
  Riders   Stages   Teams   Summits   Yearly  


 
Search by year

After 2018 - Stage 21:
 15000 starters.
  5165 different riders.
  638 teams.
  2253 stages.
  456 restdays.
  442940.60 km.
  5684 abandonnees.


Top 3
GC
Geraint Thomas83:17:13
Tom Dumoulin83:19:04
Christopher Froome83:19:37
Climb
Julian Alaphilippe170 pt.
Warren Barguil91 pt.
Rafal Majka76 pt.
Sprint
Peter Sagan477 pt.
Alexander Kristoff246 pt.
Arnaud Démare203 pt.
Youth
Pierre-Roger Latou..83:39:26
Egan Bernal83:45:05
Guillaume Martin84:01:31
Facts from Tour de France 2015
  |   Stages.  |   Stage winners.  |   Days in yellow  |   Average speed.  |   Route.  |   Teams.  |   All riders.  |   Rookies.  |  

  |   Withdrawls.  |   GC.  |   Polka  |   Green  |   White  |   Summits. (In tour)  |   Miscellaneous.  |  

Stage 1 on 04 - 07 - 2015
         Owning:    Adrien Petit      Tom Dumoulin      Rohan Dennis    
Pick a stage:  1 2 3 4 5 6 7 8 9 10 11 12 13 14 15 16 17 18 19 20 21
  UtrechtUtrecht | Dist: 13.80 km.

Average speed for all riders in stage:  50,990 km./hr.
    Place:Name:Team:Time:Km/h:
1
AUSRohan DennisUSABMC Racing Team00:14:56  +  00:00:00=55,446 
2
GERTony MartinBELEtixx - Quick Step00:15:01  +  00:00:05=55,139 
3
SUIFabian CancellaraUSATrek Factory Racing00:15:02  +  00:00:06=55,078 
44 NEDTom DumoulinDEUTeam Giant Alpecin00:15:04  +  00:00:08=54,956 
55 NEDJos Van EmdenNLDTeam Lotto NL - Jumbo00:15:11  +  00:00:15=54,533 
66 ESPJonathan CastroviejoESPMovistar Team00:15:19  +  00:00:23=54,059 
77 AUTMatthias BrändleCHEIAM Cycling00:15:19  +  00:00:23=54,059 
88 ITAAdriano MaloriESPMovistar Team00:15:25  +  00:00:29=53,708 
99 NEDWilco KeldermanNLDTeam Lotto NL - Jumbo00:15:26  +  00:00:30=53,650 
1010 ENGStephen CummingsZAFMTN - Qhubeka P/B Samsung00:15:28  +  00:00:32=53,534 
1111 NEDRobert GesinkNLDTeam Lotto NL - Jumbo00:15:29  +  00:00:33=53,477 
1212 WALGeraint ThomasGBRSky Procycling00:15:29  +  00:00:33=53,477 
1313 ENGAlex DowsettESPMovistar Team00:15:32  +  00:00:36=53,305 
1414 NEDBauke MollemaUSATrek Factory Racing00:15:33  +  00:00:37=53,248 
1515 LUXBob JungelsUSATrek Factory Racing00:15:34  +  00:00:38=53,191 
1616 NEDDylan Van BaarleUSATeam Cannondale - Garmin00:15:34  +  00:00:38=53,191 
1717 COLRigoberto UránBELEtixx - Quick Step00:15:36  +  00:00:40=53,077 
1818 FRAThibaut PinotFRAFDJ00:15:37  +  00:00:41=53,020 
1919 SVKPeter SaganRUSTinkoff Saxo00:15:37  +  00:00:41=53,020 
2020 USATejay Van GarderenUSABMC Racing Team00:15:38  +  00:00:42=52,964 
2121 CZELeopold KönigGBRSky Procycling00:15:39  +  00:00:43=52,907 
2222 ITAVincenzo NibaliKAZAstana Pro Team00:15:39  +  00:00:43=52,907 
2323 NEDLars BoomKAZAstana Pro Team00:15:40  +  00:00:44=52,851 
2424 ITADaniel OssUSABMC Racing Team00:15:40  +  00:00:44=52,851 
2525 CANSvein TuftAUSOrica - GreenEDGE00:15:41  +  00:00:45=52,795 
2626 GERJohn DegenkolbDEUTeam Giant Alpecin00:15:41  +  00:00:45=52,795 
2727 NEDLieuwe WestraKAZAstana Pro Team00:15:41  +  00:00:45=52,795 
2828 CZEZdenek StybarBELEtixx - Quick Step00:15:41  +  00:00:45=52,795 
2929 FRASylvain ChavanelCHEIAM Cycling00:15:41  +  00:00:45=52,795 
3030 URSRein TaaramäeKAZAstana Pro Team00:15:41  +  00:00:45=52,795 
3131 NEDSteven KruijswijkNLDTeam Lotto NL - Jumbo00:15:41  +  00:00:45=52,795 
3232 AUSLuke DurbridgeAUSOrica - GreenEDGE00:15:42  +  00:00:46=52,739 
3333 ENGSimon YatesAUSOrica - GreenEDGE00:15:42  +  00:00:46=52,739 
3434 AUSMichael RogersRUSTinkoff Saxo00:15:43  +  00:00:47=52,683 
3535 FRAJérémy RoyFRAFDJ00:15:43  +  00:00:47=52,683 
3636 BELSep VanmarckeNLDTeam Lotto NL - Jumbo00:15:45  +  00:00:49=52,571 
3737 SUIMartin ElmigerCHEIAM Cycling00:15:46  +  00:00:50=52,516 
3838 BELGreg Van AvermaetUSABMC Racing Team00:15:46  +  00:00:50=52,516 
3939 KENChristopher FroomeGBRSky Procycling00:15:46  +  00:00:50=52,516 
4040 FRAJérôme CoppelCHEIAM Cycling00:15:47  +  00:00:51=52,460 
4141 ESPGorka Izaguirre InsaustiESPMovistar Team00:15:49  +  00:00:53=52,350 
4242 GERPaul MartensNLDTeam Lotto NL - Jumbo00:15:51  +  00:00:55=52,240 
4343 ESPAlejandro ValverdeESPMovistar Team00:15:52  +  00:00:56=52,185 
4444 RSADaryl ImpeyAUSOrica - GreenEDGE00:15:53  +  00:00:57=52,130 
4545 UKRAndriy GrivkoKAZAstana Pro Team00:15:53  +  00:00:57=52,130 
4646 ESPAlberto ContadorRUSTinkoff Saxo00:15:54  +  00:00:58=52,075 
4747 AUSMichael MatthewsAUSOrica - GreenEDGE00:15:54  +  00:00:58=52,075 
4848 FRATony GallopinBELLotto Soudal00:15:54  +  00:00:58=52,075 
4949 ESPMarkel IrizarUSATrek Factory Racing00:15:54  +  00:00:58=52,075 
5050 FRAJean-Christophe PeraudFRAAg2r La Mondiale00:15:55  +  00:00:59=52,021 
5151 AUTGeorg PreidlerDEUTeam Giant Alpecin00:15:55  +  00:00:59=52,021 
5252 NOREdvald Boasson HagenZAFMTN - Qhubeka P/B Samsung00:15:55  +  00:00:59=52,021 
5353 SUISteve MorabitoFRAFDJ00:15:56  +  00:01:00=51,967 
5454 SUIMichael AlbasiniAUSOrica - GreenEDGE00:15:56  +  00:01:00=51,967 
5555 FRADamien GaudinFRAAg2r La Mondiale00:15:56  +  00:01:00=51,967 
5656 ESPHaimar ZubeldiaUSATrek Factory Racing00:15:57  +  00:01:01=51,912 
5757 COLNairo QuintanaESPMovistar Team00:15:57  +  00:01:01=51,912 
5858 URSTanel KangertKAZAstana Pro Team00:15:58  +  00:01:02=51,858 
5959 ESPSamuel SanchezUSABMC Racing Team00:16:00  +  00:01:04=51,750 
6060 ITAManuel QuinziatoUSABMC Racing Team00:16:00  +  00:01:04=51,750 
6161 GERSimon GeschkeDEUTeam Giant Alpecin00:16:01  +  00:01:05=51,696 
6262 NEDWout PoelsGBRSky Procycling00:16:01  +  00:01:05=51,696 
6363 CZERoman KreuzigerRUSTinkoff Saxo00:16:02  +  00:01:06=51,642 
6464 POLMichal KwiatkowskiBELEtixx - Quick Step00:16:02  +  00:01:06=51,642 
6565 AUSRichie PorteGBRSky Procycling00:16:02  +  00:01:06=51,642 
6666 NEDPieter WeeningAUSOrica - GreenEDGE00:16:03  +  00:01:07=51,589 
6767 NEDTom LeezerNLDTeam Lotto NL - Jumbo00:16:03  +  00:01:07=51,589 
6868 IOMPeter KennaughGBRSky Procycling00:16:04  +  00:01:08=51,535 
6969 PORTiago PintoRUSTeam Katusha00:16:04  +  00:01:08=51,535 
7070 PORJosé João PimentaDEUBora-Argon 1800:16:04  +  00:01:08=51,535 
7171 NORAlexander KristoffRUSTeam Katusha00:16:04  +  00:01:08=51,535 
7272 SUIReto HollensteinCHEIAM Cycling00:16:05  +  00:01:09=51,482 
7373 GERMarcel SiebergBELLotto Soudal00:16:06  +  00:01:10=51,429 
7474 ENGIan StannardGBRSky Procycling00:16:07  +  00:01:11=51,375 
7575 NZLJack BauerUSATeam Cannondale - Garmin00:16:07  +  00:01:11=51,375 
7676 GERAndré GreipelBELLotto Soudal00:16:07  +  00:01:11=51,375 
7777 ESPImanol ErvitiESPMovistar Team00:16:07  +  00:01:11=51,375 
7878 GEREmanuel BuchmannDEUBora-Argon 1800:16:08  +  00:01:12=51,322 
7979 SUIMathias FrankCHEIAM Cycling00:16:08  +  00:01:12=51,322 
8080 SUIMarcel WyssCHEIAM Cycling00:16:08  +  00:01:12=51,322 
8181 FRAArnaud DémareFRAFDJ00:16:08  +  00:01:12=51,322 
8282 COLWinner AnaconaESPMovistar Team00:16:09  +  00:01:13=51,269 
8383 PORRui CostaITALampre-Merida00:16:09  +  00:01:13=51,269 
8484 BELJulien VermoteBELEtixx - Quick Step00:16:09  +  00:01:13=51,269 
8585 FRARomain SicardFRATeam Europcar00:16:09  +  00:01:13=51,269 
8686 AUSZakkari DempsterDEUBora-Argon 1800:16:10  +  00:01:14=51,216 
8787 CANRyder HesjedalUSATeam Cannondale - Garmin00:16:11  +  00:01:15=51,164 
8888 FRAWilliam BonnetFRAFDJ00:16:11  +  00:01:15=51,164 
8989 SLOKristjan KorenUSATeam Cannondale - Garmin00:16:11  +  00:01:15=51,164 
9090 USAAndrew TalanskyUSATeam Cannondale - Garmin00:16:11  +  00:01:15=51,164 
9191 NEDLaurens ten DamNLDTeam Lotto NL - Jumbo00:16:11  +  00:01:15=51,164 
9292 POLBartosz HuzarskiDEUBora-Argon 1800:16:12  +  00:01:16=51,111 
9393 ITADaniele BennatiRUSTinkoff Saxo00:16:12  +  00:01:16=51,111 
9494 PORNelson OliveiraITALampre-Merida00:16:12  +  00:01:16=51,111 
9595 ENGDaniel MartinUSATeam Cannondale - Garmin00:16:13  +  00:01:17=51,059 
9696 NEDStef ClementCHEIAM Cycling00:16:13  +  00:01:17=51,059 
9797 ENGAdam YatesAUSOrica - GreenEDGE00:16:14  +  00:01:18=51,006 
9898 NEDSebastian LangeveldUSATeam Cannondale - Garmin00:16:15  +  00:01:19=50,954 
9999 DENLars BakBELLotto Soudal00:16:15  +  00:01:19=50,954 
100100 BELStijn DevolderUSATrek Factory Racing00:16:15  +  00:01:19=50,954 
101101 FRANicolas RocheGBRSky Procycling00:16:16  +  00:01:20=50,902 
102102 BELTim WellensBELLotto Soudal00:16:17  +  00:01:21=50,850 
103103 RSALouis MeintjesZAFMTN - Qhubeka P/B Samsung00:16:17  +  00:01:21=50,850 
104104 BELSerge PauwelsZAFMTN - Qhubeka P/B Samsung00:16:17  +  00:01:21=50,850 
105105 USATyler FarrarZAFMTN - Qhubeka P/B Samsung00:16:18  +  00:01:22=50,798 
106106 NZLGregory HendersonBELLotto Soudal00:16:18  +  00:01:22=50,798 
107107 FRAFlorian VachonFRABretagne - Séché Environnement00:16:18  +  00:01:22=50,798 
108108 AUSSimon GerransAUSOrica - GreenEDGE00:16:18  +  00:01:22=50,798 
109109 ESPAlberto LosadaRUSTeam Katusha00:16:19  +  00:01:23=50,746 
110110 NEDBram TankinkNLDTeam Lotto NL - Jumbo00:16:19  +  00:01:23=50,746 
111111 POLRafal MajkaRUSTinkoff Saxo00:16:19  +  00:01:23=50,746 
112112 FRAThomas VoecklerFRATeam Europcar00:16:20  +  00:01:24=50,694 
113113 FRAMatthieu LadagnousFRAFDJ00:16:20  +  00:01:24=50,694 
114114 FRANicolas EdetFRACofidis – Solutions Crédits00:16:20  +  00:01:24=50,694 
115115 FRAFlorian SénéchalFRACofidis – Solutions Crédits00:16:20  +  00:01:24=50,694 
116116 SUIDanilo WyssUSABMC Racing Team00:16:20  +  00:01:24=50,694 
117117 POLMichal GolasBELEtixx - Quick Step00:16:20  +  00:01:24=50,694 
118118 GERAndreas SchillingerDEUBora-Argon 1800:16:21  +  00:01:25=50,642 
119119 GERPaul VossDEUBora-Argon 1800:16:21  +  00:01:25=50,642 
120120 FRAChristophe LaporteFRACofidis – Solutions Crédits00:16:21  +  00:01:25=50,642 
121121 NEDRamon SinkeldamDEUTeam Giant Alpecin00:16:21  +  00:01:25=50,642 
122122 ITAMatteo TrentinBELEtixx - Quick Step00:16:22  +  00:01:26=50,591 
123123 IOMMark CavendishBELEtixx - Quick Step00:16:22  +  00:01:26=50,591 
124124 BELThomas De GendtBELLotto Soudal00:16:22  +  00:01:26=50,591 
125125 ESPJoaquim RodriguezRUSTeam Katusha00:16:22  +  00:01:26=50,591 
126126 SUIJakob FuglsangKAZAstana Pro Team00:16:22  +  00:01:26=50,591 
127127 FRAWarren BarguilDEUTeam Giant Alpecin00:16:23  +  00:01:27=50,539 
128128 KAZDmitriy GruzdevKAZAstana Pro Team00:16:23  +  00:01:27=50,539 
129129 RSAJacques Janse Van RensburgZAFMTN - Qhubeka P/B Samsung00:16:23  +  00:01:27=50,539 
130130 FRAAlexandre GeniezFRAFDJ00:16:23  +  00:01:27=50,539 
131131 ITAMichele ScarponiKAZAstana Pro Team00:16:24  +  00:01:28=50,488 
132132 FRAChristophe RiblonFRAAg2r La Mondiale00:16:26  +  00:01:30=50,385 
133133 ESPRafael Valls FerriITALampre-Merida00:16:26  +  00:01:30=50,385 
134134 COLJarlinson Pantano GomezCHEIAM Cycling00:16:27  +  00:01:31=50,334 
135135 FRAPierrick FédrigoFRABretagne - Séché Environnement00:16:27  +  00:01:31=50,334 
136136 ESPDaniel NavarroFRACofidis – Solutions Crédits00:16:27  +  00:01:31=50,334 
137137 SUIGregory RastUSATrek Factory Racing00:16:27  +  00:01:31=50,334 
138138 GERDominik NerzDEUBora-Argon 1800:16:27  +  00:01:31=50,334 
139139 BELJan BakelantsFRAAg2r La Mondiale00:16:28  +  00:01:32=50,283 
140140 FRABenoit VaugrenardFRAFDJ00:16:28  +  00:01:32=50,283 
141141 URSRamunas NavardauskasUSATeam Cannondale - Garmin00:16:29  +  00:01:33=50,233 
142142 BELJens DebusschereBELLotto Soudal00:16:29  +  00:01:33=50,233 
143143 FRAJulien SimonFRACofidis – Solutions Crédits00:16:29  +  00:01:33=50,233 
144144 FRAAnthony DelaplaceFRABretagne - Séché Environnement00:16:29  +  00:01:33=50,233 
145145 FRARomain BardetFRAAg2r La Mondiale00:16:30  +  00:01:34=50,182 
146146 ERIDaniel TeklehaimanotZAFMTN - Qhubeka P/B Samsung00:16:30  +  00:01:34=50,182 
147147 ITADamiano CarusoUSABMC Racing Team00:16:31  +  00:01:35=50,131 
148148 CZEJan BártaDEUBora-Argon 1800:16:31  +  00:01:35=50,131 
149149 FRABryan NauleauFRATeam Europcar00:16:31  +  00:01:35=50,131 
150150 AUTMarco HallerRUSTeam Katusha00:16:31  +  00:01:35=50,131 
151151 FRACyril GautierFRATeam Europcar00:16:32  +  00:01:36=50,081 
152152 RSAReinardt Janse Van RensburgZAFMTN - Qhubeka P/B Samsung00:16:33  +  00:01:37=50,030 
153153 NEDKoen De KortDEUTeam Giant Alpecin00:16:33  +  00:01:37=50,030 
154154 AUSNathan HaasUSATeam Cannondale - Garmin00:16:33  +  00:01:37=50,030 
155155 NEDAlbert TimmerDEUTeam Giant Alpecin00:16:35  +  00:01:39=49,930 
156156 ITAMatteo TosattoRUSTinkoff Saxo00:16:36  +  00:01:40=49,880 
157157 ARGEduardo SepulvedaFRABretagne - Séché Environnement00:16:36  +  00:01:40=49,880 
158158 ESPRubén PlazaITALampre-Merida00:16:36  +  00:01:40=49,880 
159159 RUSDimitry KozonchukRUSTeam Katusha00:16:37  +  00:01:41=49,829 
160160 FRAAlexis VuillermozFRAAg2r La Mondiale00:16:38  +  00:01:42=49,780 
161161 ITAFilippo PozzatoITALampre-Merida00:16:38  +  00:01:42=49,780 
162162 FRAGeoffrey SoupeFRACofidis – Solutions Crédits00:16:39  +  00:01:43=49,730 
163163 ITADavide CimolaiITALampre-Merida00:16:39  +  00:01:43=49,730 
164164 ITAIvan BassoRUSTinkoff Saxo00:16:41  +  00:01:45=49,630 
165165 AUSMark RenshawBELEtixx - Quick Step00:16:42  +  00:01:46=49,581 
166166 FRAPierre RollandFRATeam Europcar00:16:42  +  00:01:46=49,581 
167167 AUSAdam HansenBELLotto Soudal00:16:43  +  00:01:47=49,531 
168168 LUXLaurent DidierUSATrek Factory Racing00:16:43  +  00:01:47=49,531 
169169 BELJohan VansummerenFRAAg2r La Mondiale00:16:44  +  00:01:48=49,482 
170170 BELKenneth VanbilsenFRACofidis – Solutions Crédits00:16:44  +  00:01:48=49,482 
171171 BELSam BennettDEUBora-Argon 1800:16:44  +  00:01:48=49,482 
172172 DENMichael ValgrenRUSTinkoff Saxo00:16:45  +  00:01:49=49,433 
173173 COLJulián ArredondoUSATrek Factory Racing00:16:46  +  00:01:50=49,384 
174174 ESPJosé Herrada LópezESPMovistar Team00:16:46  +  00:01:50=49,384 
175175 ERIMerhawi GhebremedhinZAFMTN - Qhubeka P/B Samsung00:16:47  +  00:01:51=49,335 
176176 FRABryan CoquardFRATeam Europcar00:16:47  +  00:01:51=49,335 
177177 SUIMichael SchärUSABMC Racing Team00:16:47  +  00:01:51=49,335 
178178 ITAJacopo GuarnieriRUSTeam Katusha00:16:47  +  00:01:51=49,335 
179179 FRAYohann GèneFRATeam Europcar00:16:49  +  00:01:53=49,237 
180180 WALLuke RoweGBRSky Procycling00:16:50  +  00:01:54=49,188 
181181 ITALuca PaoliniRUSTeam Katusha00:16:51  +  00:01:55=49,139 
182182 HRVKristijan DurasekITALampre-Merida00:16:51  +  00:01:55=49,139 
183183 FRAAngelo TulikFRATeam Europcar00:16:53  +  00:01:57=49,042 
184184 ESPLuis Angel MateFRACofidis – Solutions Crédits00:16:54  +  00:01:58=48,994 
185185 FRAFrédéric BrunFRABretagne - Séché Environnement00:16:57  +  00:02:01=48,850 
186186 FRASébastien ChavanelFRAFDJ00:16:58  +  00:02:02=48,802 
187187 COLJosé SerpaITALampre-Merida00:17:05  +  00:02:09=48,468 
188188 NEDRoy CurversDEUTeam Giant Alpecin00:17:08  +  00:02:12=48,327 
189189 ITAMatteo BonoITALampre-Merida00:17:09  +  00:02:13=48,280 
190190 LUXBen GastauerFRAAg2r La Mondiale00:17:10  +  00:02:14=48,233 
191191 FRANacer BouhanniFRACofidis – Solutions Crédits00:17:10  +  00:02:14=48,233 
192192 FRAArnaud GérardFRABretagne - Séché Environnement00:17:14  +  00:02:18=48,046 
193193 FRAPierre-Luc PérichonFRABretagne - Séché Environnement00:17:19  +  00:02:23=47,815 
194194 FRAPerrig QuemeneurFRATeam Europcar00:17:20  +  00:02:24=47,769 
195195 ITAGiampaolo CarusoRUSTeam Katusha00:17:20  +  00:02:24=47,769 
196196 FRAArmindo FonsecaFRABretagne - Séché Environnement00:17:21  +  00:02:25=47,723 
197197 FRABrice FeilluFRABretagne - Séché Environnement00:17:24  +  00:02:28=47,586 
198198 FRAMickaël CherelFRAAg2r La Mondiale00:18:32  +  00:03:36=44,676 

Todays birthdays.

1878  Jean Novo
1883  Jules Chabas
1890  Ange Aubry
1893  Roger Marye
1913  Paul Maye
1914  Lucien Vlaemynck
1915  Alphonse Antoine
1932  Rolf Graf
1953  Julio Rubiano
1959  Jos Haex
1959  Gerard Veldscholten
1963  Pablo Moreno
1964  Juan Castillo
1977  Iban Mayo
1994  Fernando Gaviria